{"data":{"norad_id":62088,"intl_designator":"2024-220A","name":"STARLINK-11384 [DTC]","alt_names":[],"object_type":"PAYLOAD","status":"ACTIVE","operator":null,"country":"US","launch_date":"2024-11-25","launch_site_code":"AFETR","launch_vehicle":null,"mission":null,"orbit_class":"UNKNOWN","rcs_meters":null,"size_class":null,"mass_kg":null,"dimensions":null,"purposes":["comms"],"wikipedia_slug":null,"has_3d_model":false,"image_url":null,"decayed_at":null,"tle_current":{"epoch":"2026-05-25T03:31:00.304320Z","epoch_age_seconds":59065,"freshness":"FRESH","line1":"1 62088U 24220A   26145.14653130  .00226534  00000+0  17199-2 0  9995","line2":"2 62088  42.9997 302.5919 0000476   4.1587 355.9284 15.70858086 87073","mean_motion":15.70858086,"eccentricity":4.76e-5,"inclination_deg":42.9997,"raan_deg":302.5919,"arg_perigee_deg":4.1587,"mean_anomaly_deg":355.9284,"bstar":0.0017199,"rev_number":8707,"period_min":91.669643033559,"perigee_km":356.12280286612,"apogee_km":356.76393491724,"semimajor_km":6734.5803688917,"source":"CELESTRAK","updated_at":"2026-05-25T13:38:19.556722Z"}}}